Location: Pedholt
(56.0260°N, 10.2097°E)
Time: 03:29:24
(UTC+00:00)

SR - Pass Details

Date: 31 July 2021
Orbit: 581 x 874 km, 66.7° (Epoch: 21 September)

Event Time Altitude Azimuth Distance (km) Brightness Sun altitude
Rises 09:45:16 0° 286° (WNW) 3,344 ? 47.7°
Reaches altitude 10° 09:48:12 10° 299° (WNW) 2,365 ? 47.9°
Maximum altitude 09:52:41 26° 355° (N) 1,474 ? 48.3°
Drops below altitude 10° 09:56:53 10° 51° (NE) 2,202 ? 48.6°
Sets 09:59:31 0° 65° (ENE) 3,067 ? 48.8°
